This is the latest recevied weather packets stored in our database for station/object W1GK. If no packets are shown the sender has not sent any weather packets the latest 10 day(s).
| Time | Temp. | Humidity | Pressure | Rain* | Wind** | Luminosity | Snow |
|---|---|---|---|---|---|---|---|
| 1787611198 | 41.11° C | 15% | 1014.3 hPa | 0 mm | - | 691 W/m² | - |
| 1787610597 | 41.11° C | 16% | 1014.3 hPa | 0 mm | - | 726 W/m² | - |
| 1787609997 | 41.11° C | 17% | 1014.5 hPa | 0 mm | - | 802 W/m² | - |
| 1787609397 | 41.67° C | 15% | 1014.6 hPa | 0 mm | - | 295 W/m² | - |
| 1787608798 | 42.22° C | 15% | 1014.6 hPa | 0 mm | - | 796 W/m² | - |
| 1787608197 | 41.11° C | 16% | 1014.7 hPa | 0 mm | - | 828 W/m² | - |
| 1787607598 | 42.78° C | 15% | 1014.9 hPa | 0 mm | - | 134 W/m² | - |
| 1787606999 | 43.33° C | 15% | 1015.1 hPa | 0 mm | - | 664 W/m² | - |
| 1787606397 | 43.33° C | 12% | 1015.2 hPa | 0 mm | - | 285 W/m² | - |
| 1787605798 | 43.33° C | 12% | 1015.3 hPa | 0 mm | - | 141 W/m² | - |
| 1787605198 | 43.89° C | 11% | 1015.5 hPa | 0 mm | - | 230 W/m² | - |
| 1787604598 | 43.33° C | 11% | 1015.6 hPa | 0 mm | - | 591 W/m² | - |
| 1787603998 | 42.78° C | 11% | 1015.7 hPa | 0 mm | - | 846 W/m² | - |
| 1787603399 | 42.78° C | 11% | 1015.8 hPa | 0 mm | - | 861 W/m² | - |
| 1787602798 | 42.22° C | 12% | 1015.9 hPa | 0 mm | - | 861 W/m² | - |
| 1787602197 | 42.22° C | 12% | 1016 hPa | 0 mm | - | 868 W/m² | - |
| 1787601598 | 42.78° C | 12% | 1016.3 hPa | 0 mm | - | 865 W/m² | - |
| 1787600997 | 42.78° C | 13% | 1016.3 hPa | 0 mm | - | 858 W/m² | - |
| 1787600397 | 42.22° C | 14% | 1016.4 hPa | 0 mm | - | 856 W/m² | - |
| 1787599798 | 41.67° C | 13% | 1016.6 hPa | 0 mm | - | 849 W/m² | - |
| 1787599198 | 41.67° C | 14% | 1016.7 hPa | 0 mm | - | 840 W/m² | - |
| 1787598597 | 41.11° C | 14% | 1017 hPa | 0 mm | - | 824 W/m² | - |
| 1787597997 | 41.11° C | 15% | 1017.1 hPa | 0 mm | - | 830 W/m² | - |
| 1787597397 | 40.56° C | 14% | 1017.4 hPa | 0 mm | - | 828 W/m² | - |
| 1787596798 | 40° C | 15% | 1017.5 hPa | 0 mm | - | 817 W/m² | - |
* Rain latest hour (hover to see other rain measurements)
** Current wind speed in m/s (hover to see current wind gust speed)